This is the latest recevied weather packets stored in our database for station/object DK7LH-6. If no packets are shown the sender has not sent any weather packets the latest 10 day(s).
| Time | Temp. | Humidity | Pressure | Rain* | Wind** | Luminosity | Snow |
|---|---|---|---|---|---|---|---|
| 1777796137 | 17.78° C | 87% | 1010.8 hPa | 0.25 mm | - | 129 W/m² | - |
| 1777795269 | 17.22° C | 91% | 1010.7 hPa | 0.25 mm | - | 309 W/m² | - |
| 1777794340 | 16.67° C | 91% | 1010.5 hPa | 0.25 mm | - | 125 W/m² | - |
| 1777793471 | 16.67° C | 92% | 1010.7 hPa | 0.51 mm | - | 155 W/m² | - |
| 1777792541 | 15.56° C | 94% | 1010.9 hPa | 0.25 mm | - | 165 W/m² | - |
| 1777791673 | 15.56° C | 94% | 1010.8 hPa | 0.25 mm | - | 92 W/m² | - |
| 1777790743 | 15.56° C | 93% | 1010.4 hPa | 0.25 mm | - | 45 W/m² | - |
| 1777789875 | 15.56° C | 93% | 1010.8 hPa | 0 mm | - | 31 W/m² | - |
| 1777788945 | 15° C | 94% | 1010.7 hPa | 0 mm | - | 98 W/m² | - |
| 1777788077 | 15° C | 96% | 1010.7 hPa | 0 mm | - | 116 W/m² | - |
| 1777787147 | 14.44° C | 97% | 1010.6 hPa | 0 mm | - | 92 W/m² | - |
| 1777786248 | 14.44° C | 97% | 1010.6 hPa | 0.25 mm | - | 70 W/m² | - |
| 1777785318 | 13.89° C | 97% | 1010.5 hPa | 0.25 mm | - | 46 W/m² | - |
| 1777784450 | 13.89° C | 97% | 1010.7 hPa | 0.25 mm | - | 15 W/m² | - |
| 1777783521 | 13.89° C | 98% | 1010.8 hPa | 0.25 mm | - | 8 W/m² | - |
| 1777782652 | 13.89° C | 98% | 1011.1 hPa | 0 mm | - | 5 W/m² | - |
| 1777781722 | 13.33° C | 98% | 1011.3 hPa | 0 mm | - | 7 W/m² | - |
| 1777780854 | 13.33° C | 98% | 1011.3 hPa | 0 mm | - | 3 W/m² | - |
| 1777779924 | 13.33° C | 98% | 1011.3 hPa | 0 mm | - | 0 W/m² | - |
| 1777779057 | 13.33° C | 97% | 1011.2 hPa | 0 mm | - | 0 W/m² | - |
| 1777778127 | 13.33° C | 97% | 1011.2 hPa | 0 mm | - | 0 W/m² | - |
| 1777777259 | 13.33° C | 97% | 1011.2 hPa | 0 mm | - | 0 W/m² | - |
| 1777776328 | 13.33° C | 97% | 1011.2 hPa | 0 mm | - | 0 W/m² | - |
| 1777775460 | 13.33° C | 97% | 1011.3 hPa | 0 mm | - | 0 W/m² | - |
| 1777774530 | 13.33° C | 96% | 1011.3 hPa | 0 mm | - | 0 W/m² | - |
* Rain latest hour (hover to see other rain measurements)
** Current wind speed in m/s (hover to see current wind gust speed)